Flag for U.S.A. Weather past 2 weeks in Palestine, Texas, U.S.A.

Now
88 °F

Sunny.


Feels Like: 95 °F
Forecast: 72 / 85 °F
Wind: 3 mph from Southeast

Location: Palestine Municipal Airport

Current Time: Sep 17, 2014 at 5:37:39 PM

Latest Report: Sep 17, 2014 at 5:15 PM


Visibility: 10 mi

Pressure: 29.88 "Hg

Humidity: 61%

Dew point: 72 °F

Location of PalestineLocation

Historic Weather in Palestine — Graph

°F

Palestine temperature yesterday

Maximum temperature yesterday: 90 °F (at 2:15 PM)
Minimum temperature yesterday: 75 °F (at 7:35 AM)
Average temperature yesterday: 80 °F

Past Weeks' High & Low Weather Summary

 TemperatureHumidityPressure
High95 °F (Sep 6, 3:35 PM)100% (Sep 3, 4:55 AM)30.25 "Hg (Sep 3, 4:55 AM)
Low62 °F (Sep 14, 7:35 AM)39% (Sep 6, 3:35 PM)29.81 "Hg (Sep 10, 7:15 PM)
Average79 °F80%30.04 "Hg
* Reported Sep 2 4:15 PM — Sep 17 4:35 PM, Palestine, Weather by CustomWeather, © 2014

Note: Actual official high and low records may vary slightly from our data, if they occured in-between our weather recording intervals... More about our weather records

Advertising

Palestine weather history for previous 24 hours

 ConditionsComfort  
Time TempWeatherWind HumidityBarometerVisibility
4:35 PM
Sep 17
88 °FSunny.5 mph59%29.88 "Hg10 mi
4:15 PM89 °FScattered clouds.7 mph59%29.89 "Hg10 mi
3:55 PM89 °FSunny.5 mph58%29.90 "Hg10 mi
3:35 PM88 °FScattered clouds.7 mph60%29.91 "Hg10 mi
3:15 PM88 °FScattered clouds.6 mph61%29.92 "Hg10 mi
2:55 PM88 °FScattered clouds.3 mph64%29.92 "Hg10 mi
2:35 PM86 °FSunny.No wind67%29.94 "Hg10 mi
2:15 PM86 °FSunny.5 mph68%29.95 "Hg10 mi
1:55 PM84 °FScattered clouds.3 mph73%29.96 "Hg10 mi
1:35 PM84 °FBroken clouds.3 mph72%29.97 "Hg10 mi
1:15 PM83 °FBroken clouds.No wind74%29.98 "Hg10 mi
12:55 PM83 °FCloudy.3 mph75%29.98 "Hg10 mi
12:35 PM82 °FMostly cloudy.6 mph78%29.99 "Hg10 mi
12:15 PM82 °FPartly sunny.No wind78%29.99 "Hg10 mi
11:55 AM81 °FPartly sunny.3 mph81%29.99 "Hg10 mi
11:35 AM80 °FOvercast.No wind84%29.99 "Hg7 mi
11:15 AM80 °FLow clouds.No wind85%30.00 "Hg7 mi
10:55 AM78 °FLow clouds.3 mph88%30.00 "Hg7 mi
10:35 AM78 °FLow clouds.No wind91%30.00 "Hg7 mi
10:15 AM76 °FLow clouds.No wind94%30.00 "Hg10 mi
9:55 AM75 °FLow clouds.No wind96%30.00 "Hg10 mi
9:35 AM74 °FLow clouds.No wind100%30.00 "Hg7 mi
9:15 AM74 °FLow clouds.No wind100%30.00 "Hg7 mi
8:55 AM74 °FFog.3 mph100%30.00 "Hg5 mi
8:35 AM74 °FFog.No wind100%30.00 "Hg1 mi
8:15 AM73 °FFog.No wind100%29.99 "Hg1 mi
7:55 AM73 °FFog.No wind100%30.00 "Hg1 mi
7:35 AM73 °FFog.No wind100%29.99 "Hg0 mi
7:15 AM73 °FFog.No wind100%29.99 "Hg0 mi
6:55 AM73 °FFog.No wind100%29.99 "Hg0 mi
6:35 AM73 °FFog.No wind100%29.99 "Hg1 mi
6:15 AM73 °FFog.No wind100%29.99 "Hg1 mi
5:55 AM73 °FFog.No wind100%29.99 "Hg1 mi
5:35 AM73 °FFog.No wind100%29.98 "Hg1 mi
5:15 AM73 °FFog.No wind100%29.98 "Hg2 mi
4:55 AM72 °FFog.No wind100%29.98 "Hg5 mi
4:35 AM72 °FClear.No wind99%29.98 "Hg7 mi
4:15 AM72 °FClear.No wind100%29.98 "Hg7 mi
3:55 AM72 °FClear.No wind99%29.98 "Hg7 mi
3:35 AM73 °FClear.No wind98%29.99 "Hg10 mi
3:15 AM73 °FClear.No wind96%29.99 "Hg10 mi
2:55 AM73 °FClear.No wind95%30.00 "Hg10 mi
2:35 AM73 °FClear.No wind96%30.00 "Hg10 mi
2:15 AM74 °FClear.No wind96%30.00 "Hg10 mi
1:55 AM74 °FClear.No wind94%30.00 "Hg10 mi
1:35 AM74 °FClear.No wind93%30.01 "Hg10 mi
1:15 AM74 °FClear.No wind95%30.01 "Hg10 mi
12:55 AM75 °FClear.No wind91%30.01 "Hg10 mi
12:35 AM75 °FClear.No wind91%30.01 "Hg10 mi
12:15 AM75 °FClear.No wind91%30.02 "Hg10 mi
11:55 PM
Sep 16
75 °FClear.No wind90%30.02 "Hg10 mi
11:35 PM75 °FClear.No wind90%30.03 "Hg10 mi
11:15 PM76 °FClear.No wind89%30.04 "Hg10 mi
10:55 PM76 °FClear.No wind87%30.05 "Hg10 mi
10:35 PM76 °FClear.No wind86%30.05 "Hg10 mi
10:15 PM77 °FClear.3 mph85%30.05 "Hg10 mi
9:55 PM78 °FClear.3 mph83%30.05 "Hg10 mi
9:35 PM79 °FPassing clouds.7 mph82%30.04 "Hg10 mi
9:15 PM79 °FPartly cloudy.7 mph84%30.03 "Hg10 mi
8:55 PM79 °FPassing clouds.No wind88%30.02 "Hg10 mi
8:35 PM79 °FClear.No wind87%30.01 "Hg7 mi
8:15 PM80 °FSunny.No wind85%30.00 "Hg10 mi
7:55 PM81 °FSunny.No wind81%30.00 "Hg10 mi
7:35 PM83 °FSunny.No wind73%30.00 "Hg10 mi
7:15 PM84 °FSunny.No wind71%29.99 "Hg10 mi
6:55 PM85 °FSunny.3 mph66%30.00 "Hg10 mi
6:35 PM86 °FSunny.6 mph63%29.99 "Hg10 mi
6:15 PM86 °FSunny.5 mph66%29.98 "Hg10 mi
5:55 PM87 °FSunny.7 mph62%29.98 "Hg10 mi
5:15 PM87 °FScattered clouds.7 mph64%29.98 "Hg10 mi
Weather by CustomWeather, © 2014

See weather overviewHow to use our weather pages